,,PA_Meas_PMT16A,,PR_Meas_QMR101_102,,RH_Meas_QMH101,,SR_Meas_QMS101,,TA_Meas_QMH101,,GenWind,,GenWind,
time,status,PA,status,PR,status,RH,status,SR,status,TA,status,DirAvg,status,SpdAvg,
2016-11-08, 14:08:04,INVALID - VALUE NOT AVAILABLE,0,INVALID - VALUE NOT AVAILABLE,0,INVALID - VALUE NOT AVAILABLE,0,INVALID - VALUE NOT AVAILABLE,0,INVALID - VALUE NOT AVAILABLE,0,INVALID,360,INVALID,0,
2016-11-08, 14:12:04,VALID,919.767,VALID,0,INVALID,117.972,VALID,178.03,VALID,19.9593,VALID,39,VALID,0,
2016-11-08, 14:13:04,VALID,919.777,VALID,0,INVALID,118.239,VALID,207.147,VALID,19.9188,VALID,359,VALID,0,
2016-11-08, 14:14:04,VALID,919.794,VALID,0,INVALID,118.476,VALID,214.56,VALID,19.8993,VALID,9,VALID,0,
2016-11-08, 14:15:04,VALID,919.817,VALID,0,INVALID,118.536,VALID,212.411,VALID,19.9383,VALID,18,VALID,0,
2016-11-08, 14:16:04,VALID,919.82,VALID,0,INVALID,118.376,VALID,221.866,VALID,20.0553,VALID,350,VALID,0,
2016-11-08, 14:17:04,VALID,919.818,VALID,0,INVALID,118.361,VALID,207.684,VALID,20.1739,VALID,351,VALID,0,
2016-11-08, 14:18:04,VALID,919.82,VALID,0,INVALID,118.468,VALID,193.931,VALID,20.2519,VALID,7,VALID,0,
2016-11-08, 14:19:04,VALID,919.835,VALID,0,INVALID,118.819,VALID,178.675,VALID,20.2309,VALID,345,VALID,0,
2016-11-08, 14:20:04,VALID,919.851,VALID,0,INVALID,119.116,VALID,171.046,VALID,20.1919,VALID,338,VALID,0,
2016-11-08, 14:21:04,VALID,919.863,VALID,0,INVALID,119.329,VALID,165.244,VALID,20.2114,VALID,338,VALID,0,
2016-11-08, 14:22:04,VALID,919.88,VALID,0,INVALID,119.695,VALID,154.5,VALID,20.1919,VALID,359,VALID,0,
2016-11-08, 14:32:04,VALID,920.013,VALID,0,INVALID,121.754,VALID,201.56,VALID,20.3269,VALID,22,VALID,1.02813,
2016-11-08, 14:33:04,VALID,920.003,VALID,0,INVALID,121.967,VALID,277.413,VALID,20.3284,VALID,24,VALID,0,
2016-11-08, 14:34:04,VALID,920.027,VALID,0,INVALID,121.952,VALID,323.72,VALID,20.4064,VALID,28,VALID,1.30625,
2016-11-08, 14:35:04,VALID,920.027,VALID,0,INVALID,122.066,VALID,316.844,VALID,20.4829,VALID,27,VALID,1.38437,
2016-11-08, 14:36:04,VALID,920.026,VALID,0,INVALID,122.226,VALID,235.081,VALID,20.5235,VALID,9,VALID,1.69062,
2016-11-08, 14:37:04,VALID,920.045,VALID,0,INVALID,122.173,VALID,276.661,VALID,20.6194,VALID,17,VALID,1.36641,
2016-11-08, 14:38:04,VALID,920.057,VALID,0,INVALID,122.234,VALID,286.975,VALID,20.717,VALID,43,VALID,1.61758,
2016-11-08, 14:39:04,VALID,920.056,VALID,0,INVALID,122.356,VALID,231.428,VALID,20.6374,VALID,23,VALID,1.31562,
2016-11-08, 14:40:04,VALID,920.07,VALID,0,INVALID,122.211,VALID,298.149,VALID,20.6585,VALID,36,VALID,1.40117,
2016-11-08, 14:41:04,VALID,920.077,VALID,0,INVALID,121.944,VALID,326.406,VALID,20.6585,VALID,40,VALID,0.68125,
2016-11-08, 14:42:04,VALID,920.122,VALID,0,INVALID,122.081,VALID,219.502,VALID,20.756,VALID,347,VALID,1.02578,
2016-11-08, 14:43:04,VALID,920.058,VALID,0,INVALID,122.119,VALID,210.585,VALID,20.8129,VALID,9,VALID,0.801953,
2016-11-08, 14:44:04,VALID,920.073,VALID,0,INVALID,122.036,VALID,220.147,VALID,20.834,VALID,22,VALID,0.733203,
2016-11-08, 14:45:04,VALID,920.139,VALID,0,INVALID,121.967,VALID,237.66,VALID,20.8519,VALID,22,VALID,0,
2016-11-08, 14:46:04,VALID,920.113,VALID,0,INVALID,122.203,VALID,227.775,VALID,21.0291,VALID,358,VALID,0,
2016-11-08, 14:47:04,VALID,920.133,VALID,0,INVALID,122.203,VALID,214.775,VALID,21.0681,VALID,1,VALID,0,
2016-11-08, 14:48:04,VALID,920.16,VALID,0,INVALID,122.173,VALID,214.023,VALID,21.1055,VALID,5,VALID,0,
2016-11-08, 14:49:04,VALID,920.148,VALID,0,INVALID,122.02,VALID,201.452,VALID,21.1055,VALID,357,VALID,0.103125,
2016-11-08, 14:50:04,VALID,920.181,VALID,0,INVALID,121.205,VALID,198.229,VALID,20.9901,VALID,357,VALID,0,
2016-11-08, 14:51:04,VALID,920.214,VALID,0,INVALID,121.327,VALID,209.618,VALID,20.93,VALID,329,VALID,0,
2016-11-08, 14:52:04,VALID,920.209,VALID,0,INVALID,121.258,VALID,223.263,VALID,20.9105,VALID,316,VALID,0,
2016-11-08, 14:53:04,VALID,920.229,VALID,0,INVALID,121.654,VALID,246.04,VALID,20.969,VALID,3,VALID,0,
2016-11-08, 14:54:04,VALID,920.243,VALID,0,INVALID,121.685,VALID,272.363,VALID,21.0275,VALID,16,VALID,0,
2016-11-08, 14:55:04,VALID,920.284,VALID,0,INVALID,121.144,VALID,291.488,VALID,20.969,VALID,13,VALID,0,
2016-11-08, 14:56:04,VALID,920.255,VALID,0,INVALID,120.877,VALID,367.341,VALID,20.9495,VALID,8,VALID,0,
2016-11-08, 14:57:04,VALID,920.27,VALID,0,INVALID,121.06,VALID,345.101,VALID,20.9495,VALID,2,VALID,0,
2016-11-08, 14:58:04,VALID,920.276,VALID,0,INVALID,121.205,VALID,332.315,VALID,21.008,VALID,348,VALID,0,
2016-11-08, 14:59:04,VALID,920.274,VALID,0,INVALID,121.403,VALID,318.348,VALID,21.086,VALID,348,VALID,0,
2016-11-08, 15:00:04,VALID,920.314,VALID,0,INVALID,120.641,VALID,295.893,VALID,21.0486,VALID,269,VALID,0,
2016-11-08, 15:01:04,VALID,920.282,VALID,0,INVALID,120.58,VALID,264.735,VALID,21.1071,VALID,230,VALID,0,
2016-11-08, 15:02:04,VALID,920.345,VALID,0,INVALID,120.534,VALID,245.933,VALID,21.125,VALID,272,VALID,0,
2016-11-08, 15:03:04,VALID,920.338,VALID,0,INVALID,120.397,VALID,220.577,VALID,21.1055,VALID,261,VALID,0,
2016-11-08, 15:04:04,VALID,920.347,VALID,0,INVALID,119.817,VALID,198.766,VALID,21.008,VALID,254,VALID,0,
2016-11-08, 15:05:04,VALID,920.372,VALID,0,INVALID,120.587,VALID,190.386,VALID,21.008,VALID,262,VALID,0,
2016-11-08, 15:06:04,VALID,920.372,VALID,0,INVALID,121.372,VALID,191.46,VALID,21.1055,VALID,348,VALID,0,
2016-11-08, 15:07:04,VALID,920.389,VALID,0,INVALID,121.449,VALID,199.088,VALID,21.164,VALID,4,VALID,0,
2016-11-08, 15:08:04,VALID,920.401,VALID,0,INVALID,121.807,VALID,213.593,VALID,21.3006,VALID,15,VALID,0,
2016-11-08, 15:09:04,VALID,920.413,VALID,0,INVALID,121.83,VALID,232.61,VALID,21.3786,VALID,326,VALID,0,
2016-11-08, 15:10:04,VALID,920.443,VALID,0,INVALID,121.136,VALID,242.71,VALID,21.3981,VALID,6,VALID,0,
2016-11-08, 15:11:04,VALID,920.413,VALID,0,INVALID,121.182,VALID,240.668,VALID,21.4957,VALID,317,VALID,0,
2016-11-08, 15:12:04,VALID,920.431,VALID,0,INVALID,120.755,VALID,235.296,VALID,21.5542,INVALID,360,VALID,0,
2016-11-08, 15:13:04,VALID,920.45,VALID,0,INVALID,120.404,VALID,253.991,VALID,21.6323,INVALID,360,VALID,0,
2016-11-08, 15:14:04,VALID,920.434,VALID,0,INVALID,120.465,VALID,236.156,VALID,21.7688,VALID,5,VALID,0,
2016-11-08, 15:15:04,VALID,920.488,VALID,0,INVALID,119.459,VALID,238.197,VALID,21.8079,VALID,328,VALID,0,
2016-11-08, 15:16:04,VALID,920.511,VALID,0,INVALID,118.963,VALID,251.09,VALID,21.8469,VALID,7,VALID,0,
2016-11-08, 15:17:04,VALID,920.46,VALID,0,INVALID,119.444,VALID,261.082,VALID,21.9054,INVALID,360,VALID,0,
2016-11-08, 15:18:04,VALID,920.456,VALID,0,INVALID,118.826,VALID,251.735,VALID,21.9054,VALID,279,VALID,0,
2016-11-08, 15:19:04,VALID,920.492,VALID,0,INVALID,116.951,VALID,244.751,VALID,21.7672,VALID,286,VALID,0,
2016-11-08, 15:20:04,VALID,920.489,VALID,0,INVALID,118.117,VALID,247.974,VALID,21.7688,VALID,286,VALID,0,
2016-11-08, 15:21:04,VALID,920.475,VALID,0,INVALID,117.5,VALID,261.512,VALID,21.7493,VALID,285,VALID,0,
2016-11-08, 15:22:04,VALID,920.488,VALID,0,INVALID,117.904,VALID,273.545,VALID,21.8079,VALID,293,VALID,0,
2016-11-08, 15:23:04,VALID,920.505,VALID,0,INVALID,118.293,VALID,277.198,VALID,21.8664,VALID,282,VALID,0,
2016-11-08, 15:24:04,VALID,920.475,VALID,0,INVALID,117.866,VALID,302.017,VALID,21.9249,VALID,328,VALID,0,
2016-11-08, 15:25:04,VALID,920.489,VALID,0,INVALID,117.477,VALID,314.91,VALID,22.081,VALID,355,VALID,0,
2016-11-08, 15:26:04,VALID,920.471,VALID,0,INVALID,109.8,VALID,407.847,VALID,22.1379,VALID,294,VALID,0,
2016-11-08, 15:27:04,VALID,920.486,VALID,0,VALID,96.8631,VALID,473.386,VALID,22.1769,VALID,247,VALID,0,
2016-11-08, 15:28:04,VALID,920.482,VALID,0,VALID,98.6089,VALID,426.004,VALID,22.1574,VALID,249,VALID,0,
2016-11-08, 15:29:04,VALID,920.5,VALID,0,VALID,101.445,VALID,457.484,VALID,22.2567,VALID,283,VALID,0,
2016-11-08, 15:30:04,VALID,920.511,VALID,0,VALID,98.182,VALID,463.394,VALID,22.4111,VALID,294,VALID,0,
2016-11-08, 15:31:04,VALID,920.522,VALID,0,VALID,89.0949,VALID,546.553,VALID,22.5477,VALID,254,VALID,0,
2016-11-08, 15:32:04,VALID,920.529,VALID,0,VALID,88.7061,VALID,554.396,VALID,22.6062,VALID,243,VALID,0,
2016-11-08, 15:33:04,VALID,920.52,VALID,0,VALID,88.3478,VALID,616.82,VALID,22.8616,VALID,243,VALID,0,
2016-11-08, 15:34:04,VALID,920.56,VALID,0,VALID,87.3796,VALID,640.886,VALID,23.2911,VALID,244,VALID,0,
2016-11-08, 15:35:04,VALID,920.531,VALID,0,VALID,83.6975,VALID,705.996,VALID,23.74,VALID,243,VALID,0,
2016-11-08, 15:36:04,VALID,920.541,VALID,0,VALID,80.9378,VALID,272.363,VALID,24.1873,VALID,7,VALID,0,
2016-11-08, 15:37:04,VALID,920.514,VALID,0,VALID,80.6176,VALID,316.737,VALID,24.2068,VALID,322,VALID,0,
2016-11-08, 15:38:04,VALID,920.55,VALID,0,VALID,80.084,VALID,532.049,VALID,24.0311,VALID,260,VALID,0,
2016-11-08, 15:39:04,VALID,920.565,VALID,0,VALID,80.2669,VALID,637.341,VALID,23.8944,VALID,240,VALID,0,
2016-11-08, 15:40:04,VALID,920.554,VALID,0,VALID,81.0903,VALID,445.558,VALID,23.756,VALID,237,VALID,0,
2016-11-08, 15:41:04,VALID,920.55,VALID,0,VALID,84.5589,VALID,359.391,VALID,23.7968,VALID,277,VALID,0,
2016-11-08, 15:42:04,VALID,920.559,VALID,0,VALID,83.2706,VALID,678.921,VALID,23.8731,VALID,280,VALID,0,
2016-11-08, 15:43:04,VALID,920.569,VALID,0,VALID,82.958,VALID,544.942,VALID,24.0701,VALID,317,VALID,0,
2016-11-08, 15:44:04,VALID,920.537,VALID,0,VALID,80.1526,VALID,729.311,VALID,24.3044,VALID,302,VALID,0,
2016-11-08, 15:45:04,VALID,920.552,VALID,0,VALID,79.619,VALID,486.816,VALID,24.2068,VALID,262,VALID,0,
2016-11-08, 15:46:04,VALID,920.576,VALID,0,VALID,81.0445,VALID,375.507,VALID,23.9512,VALID,301,VALID,0,
2016-11-08, 15:47:04,VALID,920.58,VALID,0,VALID,81.6925,VALID,346.283,VALID,23.8944,VALID,300,VALID,0.455859,
2016-11-08, 15:48:04,VALID,920.572,VALID,0,VALID,82.2795,VALID,318.133,VALID,23.6406,VALID,288,VALID,0.0429688,
2016-11-08, 15:49:04,VALID,920.616,VALID,0,VALID,83.9109,VALID,283,VALID,23.3088,VALID,265,VALID,0,
2016-11-08, 15:50:04,VALID,920.58,VALID,0,VALID,89.4227,VALID,257.107,VALID,23.2307,VALID,30,VALID,0,
2016-11-08, 15:51:04,VALID,920.613,VALID,0,VALID,90.1393,VALID,240.561,VALID,23.2307,VALID,12,VALID,0,
2016-11-08, 15:52:04,VALID,920.621,VALID,0,VALID,90.8254,VALID,230.676,VALID,23.2094,VALID,279,VALID,0,
2016-11-08, 15:53:04,VALID,920.628,VALID,0,VALID,93.4859,VALID,215.742,VALID,23.2698,VALID,278,VALID,0,
2016-11-08, 15:54:04,VALID,920.61,VALID,0,VALID,97.0613,VALID,194.039,VALID,23.3461,VALID,240,VALID,0,
2016-11-08, 15:55:04,VALID,920.64,VALID,0,VALID,96.5811,VALID,169.757,VALID,23.4437,VALID,78,VALID,0,
2016-11-08, 15:56:04,VALID,920.655,VALID,0,VALID,91.6792,VALID,164.17,VALID,23.4827,VALID,41,VALID,0,
2016-11-08, 15:57:04,VALID,920.645,VALID,0,VALID,96.7335,VALID,168.897,VALID,23.5022,VALID,41,VALID,0,
2016-11-08, 15:58:04,VALID,920.668,VALID,0,VALID,93.5241,VALID,160.517,VALID,23.5217,VALID,27,VALID,0,
2016-11-08, 15:59:04,VALID,920.681,VALID,0,VALID,89.0796,VALID,161.377,VALID,23.4827,VALID,26,VALID,0,
2016-11-08, 16:00:04,VALID,920.676,VALID,0,VALID,96.5658,VALID,173.195,VALID,23.4827,VALID,11,VALID,0,
2016-11-08, 16:01:04,VALID,920.663,VALID,0,VALID,90.0021,VALID,184.799,VALID,23.3851,VALID,301,VALID,0,
2016-11-08, 16:02:04,VALID,920.651,VALID,0,VALID,97.1986,VALID,199.626,VALID,23.2094,VALID,25,VALID,1.01133,
2016-11-08, 16:03:04,VALID,920.655,VALID,0,VALID,104,VALID,227.345,VALID,22.9948,VALID,18,VALID,0,
2016-11-08, 16:04:04,VALID,920.612,VALID,0,INVALID,114.077,VALID,429.013,VALID,22.938,VALID,19,VALID,0,
2016-11-08, 16:05:04,VALID,920.608,VALID,0,INVALID,114.336,VALID,316.951,VALID,22.938,VALID,15,VALID,0.00390625,
2016-11-08, 16:06:04,VALID,920.577,VALID,0,INVALID,113.65,VALID,672.044,VALID,23.0356,VALID,344,VALID,0,
2016-11-08, 16:07:04,VALID,920.561,VALID,0,VALID,104,VALID,541.826,VALID,23.2112,VALID,338,VALID,0,
2016-11-08, 16:08:04,VALID,920.576,VALID,0,VALID,92.0223,VALID,822.569,VALID,23.3851,VALID,274,VALID,0,
2016-11-08, 16:09:04,VALID,920.603,VALID,0,VALID,86.2513,VALID,412.359,VALID,23.6193,VALID,22,VALID,0,
2016-11-08, 16:10:04,VALID,920.608,VALID,0,VALID,84.7343,VALID,381.201,VALID,23.8145,VALID,268,VALID,0,
2016-11-08, 16:11:04,VALID,920.614,VALID,0,VALID,83.8042,VALID,380.557,VALID,23.7364,VALID,334,VALID,0,
2016-11-08, 16:12:04,VALID,920.601,VALID,0,VALID,81.258,VALID,343.704,VALID,23.6974,VALID,343,VALID,0,
2016-11-08, 16:13:04,VALID,920.604,VALID,0,VALID,84.6657,VALID,410.103,VALID,23.7169,VALID,325,VALID,0,
2016-11-08, 16:14:04,VALID,920.625,VALID,0,VALID,83.2325,VALID,487.783,VALID,23.8731,VALID,10,VALID,0,
2016-11-08, 16:15:04,VALID,920.626,VALID,0,VALID,81.8602,VALID,422.673,VALID,24.0683,VALID,343,VALID,0,
2016-11-08, 16:16:04,VALID,920.604,VALID,0,VALID,82.4472,VALID,561.058,VALID,24.1854,VALID,335,VALID,0,
2016-11-08, 16:17:04,VALID,920.611,VALID,0,VALID,79.84,VALID,364.225,VALID,24.3416,VALID,300,VALID,0,
2016-11-08, 16:18:04,VALID,920.631,VALID,0,VALID,80.3813,VALID,312.654,VALID,24.3983,VALID,22,VALID,0,
2016-11-08, 16:19:04,VALID,920.596,VALID,0,VALID,79.7104,VALID,346.927,VALID,24.5173,VALID,279,VALID,0,
2016-11-08, 16:20:04,VALID,920.625,VALID,0,VALID,80.0535,VALID,538.173,VALID,24.4978,VALID,309,VALID,0,
2016-11-08, 16:21:04,VALID,920.6,VALID,0,VALID,79.0624,VALID,842.554,VALID,24.4374,VALID,296,VALID,0,
2016-11-08, 16:22:04,VALID,920.636,VALID,0,VALID,79.5351,VALID,343.382,VALID,24.4392,VALID,352,VALID,1.11602,
2016-11-08, 16:23:04,VALID,920.66,VALID,0,VALID,81.7688,VALID,293.637,VALID,24.3983,VALID,288,VALID,0.294922,
2016-11-08, 16:24:04,VALID,920.657,VALID,0,VALID,81.6849,VALID,341.126,VALID,24.3593,VALID,15,VALID,0.225391,
2016-11-08, 16:25:04,VALID,920.651,VALID,0,VALID,79.6723,VALID,465.113,VALID,24.3202,VALID,333,VALID,0.215625,
2016-11-08, 16:26:04,VALID,920.627,VALID,0,VALID,80.9607,VALID,400.97,VALID,24.1269,VALID,3,VALID,0.449219,
2016-11-08, 16:27:04,VALID,920.628,VALID,0,VALID,81.8298,VALID,398.714,VALID,24.0665,VALID,22,VALID,0.626953,
2016-11-08, 16:28:04,VALID,920.632,VALID,0,VALID,82.0203,VALID,337.473,VALID,24.125,VALID,10,VALID,0.172656,
2016-11-08, 16:29:04,VALID,920.609,VALID,0,VALID,81.8679,VALID,301.05,VALID,24.086,VALID,343,VALID,0,
2016-11-08, 16:30:04,VALID,920.586,VALID,0,VALID,84.2235,VALID,267.528,VALID,24.1641,VALID,19,VALID,1.22031,
2016-11-08, 16:31:04,VALID,920.567,VALID,0,VALID,81.2809,VALID,246.685,VALID,24.0665,VALID,301,VALID,0.390234,
2016-11-08, 16:32:04,VALID,920.594,VALID,0,VALID,82.5006,VALID,248.404,VALID,23.9103,VALID,335,VALID,0,
2016-11-08, 16:33:04,VALID,920.578,VALID,0,VALID,84.2311,VALID,286.76,VALID,23.9493,VALID,23,VALID,0,
2016-11-08, 16:34:04,VALID,920.573,VALID,0,VALID,83.141,VALID,276.768,VALID,24.086,VALID,18,VALID,0.267578,
2016-11-08, 16:35:04,VALID,920.607,VALID,0,VALID,80.3051,VALID,267.099,VALID,24.0665,VALID,10,VALID,1.54961,
2016-11-08, 16:36:04,VALID,920.62,VALID,0,VALID,82.3786,VALID,265.487,VALID,23.9689,VALID,15,VALID,0,
2016-11-08, 16:37:04,VALID,920.603,VALID,0,VALID,80.5185,VALID,279.454,VALID,23.9298,VALID,360,VALID,0,
2016-11-08, 16:38:04,VALID,920.603,VALID,0,VALID,83.9948,VALID,255.388,VALID,23.9689,VALID,12,VALID,0,
2016-11-08, 16:39:04,VALID,920.606,VALID,0,VALID,86.0989,VALID,218.213,VALID,24.0665,VALID,27,VALID,0,
2016-11-08, 16:40:04,VALID,920.636,VALID,0,VALID,80.8844,VALID,209.403,VALID,24.0469,VALID,240,VALID,0,
2016-11-08, 16:41:04,VALID,920.623,VALID,0,VALID,80.8006,VALID,199.518,VALID,23.7523,VALID,252,VALID,0.0195313,
2016-11-08, 16:42:04,VALID,920.648,VALID,0,VALID,83.2782,VALID,266.347,VALID,23.4596,VALID,253,VALID,0,
2016-11-08, 16:43:04,VALID,920.668,VALID,0,VALID,101.269,VALID,352.085,VALID,23.3833,VALID,10,VALID,0.796094,
2016-11-08, 16:44:04,VALID,920.645,VALID,0,VALID,104,VALID,413.971,VALID,23.3053,VALID,12,VALID,3.03477,
2016-11-08, 16:45:04,VALID,920.648,VALID,0,VALID,91.2599,VALID,471.559,VALID,23.3248,VALID,328,VALID,0.0808594,
2016-11-08, 16:46:04,VALID,920.622,VALID,0,VALID,92.0451,VALID,474.675,VALID,23.4419,VALID,19,VALID,0.960547,
2016-11-08, 16:47:04,VALID,920.681,VALID,0,VALID,94.1949,VALID,503.254,VALID,23.5395,VALID,241,VALID,0.0804688,
2016-11-08, 16:48:04,VALID,920.65,VALID,0,VALID,85.672,VALID,630.465,VALID,23.6566,VALID,210,VALID,0.0992187,
2016-11-08, 16:49:04,VALID,920.635,VALID,0,VALID,86.602,VALID,920.233,VALID,23.8322,VALID,251,VALID,0,
2016-11-08, 16:50:04,VALID,920.595,VALID,0,VALID,90.7491,VALID,610.481,VALID,24.0665,VALID,3,VALID,0,
2016-11-08, 16:51:04,VALID,920.533,VALID,0,VALID,82.1499,VALID,674.73,VALID,24.3202,VALID,22,VALID,0.403906,
2016-11-08, 16:52:04,VALID,920.607,VALID,0,VALID,86.0226,VALID,699.12,VALID,24.455,VALID,7,VALID,0.203125,
2016-11-08, 16:53:04,VALID,920.576,VALID,0,VALID,82.9656,VALID,508.949,VALID,24.7693,VALID,343,VALID,0.0511719,
2016-11-08, 16:54:04,VALID,920.594,VALID,0,VALID,78.7423,VALID,426.434,VALID,24.7497,VALID,10,VALID,0.00820312,
2016-11-08, 16:55:04,VALID,920.668,VALID,0,VALID,82.8513,VALID,466.617,VALID,24.5545,VALID,342,VALID,1.59961,
2016-11-08, 16:56:04,VALID,920.578,VALID,0,VALID,81.1894,VALID,578.141,VALID,24.3574,VALID,33,VALID,2.27461,
2016-11-08, 16:57:04,VALID,920.653,VALID,0,VALID,82.1804,VALID,531.082,VALID,24.2598,VALID,19,VALID,1.47383,
2016-11-08, 16:58:04,VALID,920.671,VALID,0,VALID,81.3419,VALID,423.963,VALID,24.2031,VALID,286,VALID,1.77148,
2016-11-08, 16:59:04,VALID,920.667,VALID,0,VALID,82.3024,VALID,360.787,VALID,24.0079,VALID,8,VALID,2.22344,
2016-11-08, 17:00:04,VALID,920.678,VALID,0,VALID,84.3531,VALID,317.918,VALID,23.8499,VALID,345,VALID,0.0289063,
2016-11-08, 17:01:04,VALID,920.676,VALID,0,VALID,83.2706,VALID,270,VALID,23.8499,VALID,279,VALID,0.735156,
2016-11-08, 17:02:04,VALID,920.717,VALID,0,VALID,85.3213,VALID,236.156,VALID,23.8908,VALID,359,VALID,0,
2016-11-08, 17:03:04,VALID,920.694,VALID,0,VALID,84.5742,VALID,267.206,VALID,23.9493,INVALID,360,VALID,0,
2016-11-08, 17:04:04,VALID,920.653,VALID,0,VALID,84.0405,VALID,293.314,VALID,24.0097,VALID,43,VALID,0,
2016-11-08, 17:05:04,VALID,920.626,VALID,0,VALID,82.5921,VALID,275.157,VALID,23.9689,VALID,262,VALID,0.403516,
2016-11-08, 17:06:04,VALID,920.622,VALID,0,VALID,84.1549,VALID,302.662,VALID,23.8908,VALID,359,VALID,0.0289063,
2016-11-08, 17:07:04,VALID,920.66,VALID,0,VALID,83.9948,VALID,327.266,VALID,23.8322,VALID,246,VALID,1.41328,
2016-11-08, 17:08:04,VALID,920.653,VALID,0,VALID,85.1459,VALID,382.168,VALID,23.559,VALID,325,VALID,0.616016,
2016-11-08, 17:09:04,VALID,920.641,VALID,0,VALID,86.7468,VALID,419.665,VALID,23.5004,VALID,236,VALID,0.709766,
2016-11-08, 17:10:04,VALID,920.693,VALID,0,VALID,85.4051,VALID,378.085,VALID,23.4614,VALID,102,VALID,0.575781,
2016-11-08, 17:11:04,VALID,920.654,VALID,0,VALID,85.0697,VALID,294.496,VALID,23.4437,VALID,192,VALID,0,
2016-11-08, 17:12:04,VALID,920.638,VALID,0,VALID,84.9782,VALID,214.13,VALID,23.4437,VALID,142,VALID,0,
2016-11-08, 17:13:04,VALID,920.624,VALID,0,VALID,83.7356,VALID,212.841,VALID,23.4614,VALID,280,VALID,0.260938,
2016-11-08, 17:14:04,VALID,920.584,VALID,0,VALID,84.8258,VALID,219.61,VALID,23.3833,VALID,283,VALID,1.7375,
2016-11-08, 17:15:04,VALID,920.573,VALID,0,VALID,89.9029,VALID,225.841,VALID,23.3053,VALID,306,VALID,0.219141,
2016-11-08, 17:16:04,VALID,920.576,VALID,0,VALID,93.4555,VALID,213.593,VALID,23.2857,VALID,253,VALID,0.160547,
2016-11-08, 17:17:04,VALID,920.562,VALID,0,VALID,93.3868,VALID,214.238,VALID,23.3053,VALID,48,VALID,0,
2016-11-08, 17:18:04,VALID,920.566,VALID,0,VALID,102.078,VALID,207.791,VALID,23.2449,VALID,106,VALID,0,
2016-11-08, 17:19:04,VALID,920.538,VALID,0,VALID,97.7856,VALID,182.865,VALID,23.2467,VALID,146,VALID,0.299219,
2016-11-08, 17:20:04,VALID,920.555,VALID,0,VALID,96.6497,VALID,163.848,VALID,22.9327,VALID,287,VALID,0.00703125,
2016-11-08, 17:21:04,VALID,920.56,VALID,0,INVALID,109.442,VALID,155.145,VALID,22.7962,VALID,7,VALID,0.0078125,
2016-11-08, 17:22:04,VALID,920.505,VALID,0,INVALID,113.124,VALID,154.823,VALID,22.7003,VALID,134,VALID,0.432031,
2016-11-08, 17:23:04,VALID,920.53,VALID,0,INVALID,113.985,VALID,154.5,VALID,22.5442,VALID,222,VALID,0.373047,
2016-11-08, 17:24:04,VALID,920.501,VALID,0,INVALID,116.852,VALID,149.773,VALID,22.4662,VALID,96,VALID,0.0554687,
2016-11-08, 17:30:04,VALID,920.402,VALID,0,INVALID,118.094,VALID,135.698,VALID,21.9996,VALID,319,VALID,2.25859,
2016-11-08, 17:31:04,VALID,920.437,VALID,0,INVALID,118.239,VALID,173.195,VALID,21.8631,VALID,194,VALID,0,
2016-11-08, 17:32:04,VALID,920.46,VALID,0,INVALID,118.498,VALID,225.089,VALID,21.8045,VALID,249,VALID,0.580469,
2016-11-08, 17:33:04,VALID,920.44,VALID,0,INVALID,119.291,VALID,256.355,VALID,21.785,VALID,266,VALID,0,
2016-11-08, 17:34:04,VALID,920.436,VALID,0,INVALID,120.031,VALID,273.545,VALID,21.8224,VALID,2,VALID,0.857422,
2016-11-08, 17:35:04,VALID,920.391,VALID,0,INVALID,119.398,VALID,303.306,VALID,21.8452,VALID,185,VALID,0,
2016-11-08, 17:36:04,VALID,920.42,VALID,0,INVALID,118.963,VALID,309.001,VALID,21.8029,VALID,41,VALID,0.478906,
2016-11-08, 17:37:04,VALID,920.438,VALID,0,INVALID,119.627,VALID,284.397,VALID,21.9004,VALID,249,VALID,0,
2016-11-08, 17:38:04,VALID,920.393,VALID,0,INVALID,118.193,VALID,233.792,VALID,21.7834,VALID,248,VALID,1.56641,
2016-11-08, 17:39:04,VALID,920.402,VALID,0,INVALID,119.169,VALID,196.08,VALID,21.6859,VALID,329,VALID,0,
2016-11-08, 17:40:04,VALID,920.356,VALID,0,INVALID,120.252,VALID,198.551,VALID,21.7444,VALID,273,VALID,0.0417969,
2016-11-08, 17:41:04,VALID,920.369,VALID,0,INVALID,119.55,VALID,210.907,VALID,21.6468,VALID,247,VALID,2.27422,
2016-11-08, 17:42:04,VALID,920.325,VALID,0,INVALID,120.298,VALID,204.138,VALID,21.5688,VALID,251,VALID,0.382422,
2016-11-08, 17:43:04,VALID,920.309,VALID,0,INVALID,121.113,VALID,171.046,VALID,21.5883,VALID,319,VALID,0.994531,
2016-11-08, 17:44:04,VALID,920.341,VALID,0,INVALID,121.228,VALID,179.104,VALID,21.629,VALID,317,VALID,0.00625,
2016-11-08, 17:45:04,VALID,920.331,VALID,0,INVALID,121.487,VALID,182.328,VALID,21.6875,VALID,17,VALID,0,
2016-11-08, 17:46:04,VALID,920.275,VALID,0,INVALID,121.609,VALID,174.484,VALID,21.7639,VALID,141,VALID,0.216016,
2016-11-08, 17:47:04,VALID,920.318,VALID,0,INVALID,121.708,VALID,193.287,VALID,21.8241,VALID,118,VALID,0,
2016-11-08, 17:48:04,VALID,920.272,VALID,0,INVALID,121.571,VALID,250.553,VALID,21.8631,VALID,78,VALID,0.0121094,
2016-11-08, 17:49:04,VALID,920.304,VALID,0,INVALID,121.532,VALID,282.463,VALID,21.9216,VALID,35,VALID,1.01406,
2016-11-08, 17:50:04,VALID,920.26,VALID,0,INVALID,120.869,VALID,290.951,VALID,21.8631,VALID,161,VALID,1.0582,
2016-11-08, 17:51:04,VALID,920.219,VALID,0,INVALID,120.435,VALID,289.661,VALID,21.746,VALID,274,VALID,0.292188,
2016-11-08, 17:52:04,VALID,920.218,VALID,0,INVALID,120.755,VALID,282.785,VALID,21.7265,VALID,25,VALID,1.75039,
2016-11-08, 17:53:04,VALID,920.202,VALID,0,INVALID,120.694,VALID,273.975,VALID,21.7265,VALID,307,VALID,0,
2016-11-08, 17:54:04,VALID,920.208,VALID,0,INVALID,121.09,VALID,259.685,VALID,21.8045,VALID,36,VALID,0.932813,
2016-11-08, 17:55:04,VALID,920.165,VALID,0,INVALID,121.296,VALID,262.371,VALID,21.8826,VALID,27,VALID,0.0929687,
2016-11-08, 17:56:04,VALID,920.125,VALID,0,INVALID,121.197,VALID,271.074,VALID,21.9606,VALID,21,VALID,0.0425781,
2016-11-08, 17:57:04,VALID,920.119,VALID,0,INVALID,120.763,VALID,287.513,VALID,22.0191,VALID,22,VALID,0.5125,
2016-11-08, 17:58:04,VALID,920.153,VALID,0,INVALID,120.473,VALID,373.036,VALID,22.1167,VALID,353,VALID,0.00585938,
2016-11-08, 17:59:04,VALID,920.126,VALID,0,INVALID,119.352,VALID,462.964,VALID,22.1345,VALID,273,VALID,0.272266,
2016-11-08, 18:00:04,VALID,920.082,VALID,0,INVALID,120.038,VALID,444.377,VALID,22.2728,VALID,27,VALID,0.837109,
2016-11-08, 18:01:04,VALID,920.035,VALID,0,INVALID,120.313,VALID,406.772,VALID,22.4484,VALID,303,VALID,0.0105469,
2016-11-08, 18:02:04,VALID,920.047,VALID,0,INVALID,118.872,VALID,456.732,VALID,22.5655,VALID,20,VALID,0.00195313,
2016-11-08, 18:03:04,VALID,920.028,VALID,0,INVALID,116.844,VALID,389.904,VALID,22.6435,VALID,314,VALID,0.926953,